TimeMDT,TemperatureF,Dew PointF,Humidity,Sea Level PressureIn,VisibilityMPH,Wind Direction,Wind SpeedMPH,Gust SpeedMPH,PrecipitationIn,Events,Conditions,WindDirDegrees,DateUTC
12:58 AM,73.0,39.4,30,29.85,10.0,NNW,6.9,-,N/A,,Partly Cloudy,340,2013-08-26 06:58:00
1:58 AM,68.9,39.6,34,29.86,10.0,NNW,8.1,-,N/A,,Clear,330,2013-08-26 07:58:00
2:58 AM,61.0,38.1,43,29.88,10.0,West,9.2,-,N/A,,Clear,280,2013-08-26 08:58:00
3:58 AM,61.7,38.7,43,29.89,10.0,NW,6.9,-,N/A,,Clear,320,2013-08-26 09:58:00
4:58 AM,58.1,38.3,48,29.91,10.0,WNW,5.8,-,N/A,,Clear,290,2013-08-26 10:58:00
5:58 AM,57.4,39.0,50,29.91,10.0,WNW,8.1,-,N/A,,Clear,300,2013-08-26 11:58:00
6:58 AM,54.0,39.6,58,29.95,10.0,SE,5.8,-,N/A,,Clear,130,2013-08-26 12:58:00
7:58 AM,55.4,38.7,53,29.96,10.0,West,5.8,-,N/A,,Clear,280,2013-08-26 13:58:00
8:58 AM,62.2,42.6,49,29.98,10.0,ENE,3.5,-,N/A,,Clear,70,2013-08-26 14:58:00
9:58 AM,68.2,43.3,41,29.99,10.0,East,5.8,-,N/A,,Clear,90,2013-08-26 15:58:00
10:58 AM,74.7,43.9,33,29.99,6.0,Variable,6.9,-,N/A,,Haze,0,2013-08-26 16:58:00
11:58 AM,78.4,45.3,31,29.96,6.0,ESE,5.8,-,N/A,,Haze,120,2013-08-26 17:58:00
12:58 PM,81.0,46.2,29,29.94,7.0,Variable,5.8,-,N/A,,Partly Cloudy,0,2013-08-26 18:58:00
1:58 PM,83.8,43.3,24,29.90,10.0,Variable,5.8,-,N/A,,Clear,0,2013-08-26 19:58:00
2:58 PM,87.3,39.4,18,29.89,6.0,NE,8.1,-,N/A,,Haze,50,2013-08-26 20:58:00
3:58 PM,88.7,39.2,18,29.87,6.0,WSW,3.5,-,N/A,,Haze,240,2013-08-26 21:58:00
4:58 PM,90.3,39.2,17,29.85,6.0,South,5.8,-,N/A,,Haze,180,2013-08-26 22:58:00
5:58 PM,89.8,40.1,18,29.84,6.0,East,4.6,-,N/A,,Haze,100,2013-08-26 23:58:00
6:58 PM,89.4,40.3,18,29.83,6.0,Variable,4.6,-,N/A,,Haze,0,2013-08-27 00:58:00
7:58 PM,88.3,41.7,20,29.81,6.0,ESE,8.1,-,N/A,,Haze,110,2013-08-27 01:58:00
8:58 PM,82.0,45.1,27,29.82,7.0,ESE,6.9,-,N/A,,Haze,110,2013-08-27 02:58:00
9:58 PM,78.3,43.3,29,29.83,10.0,NNW,6.9,-,N/A,,Clear,340,2013-08-27 03:58:00
10:58 PM,77.7,39.7,26,29.83,10.0,North,6.9,-,N/A,,Partly Cloudy,350,2013-08-27 04:58:00
11:58 PM,70.3,40.1,33,29.86,10.0,ENE,2.3,-,N/A,,Clear,60,2013-08-27 05:58:00